Simultaneous Nadir Overpasses (SNOs) Predictions

Prediction of SNOs between NOAA-19 and NPP Satellite Orbit:

Table of predicted SNOs for the next 14.0 days since TLE Epoch: 1/10/2020
Index Date (NOAA-19) Time (NOAA-19) Lat,Lon (NOAA-19) SZA (NOAA-19 ) Date (NPP) Time (NPP) Lat,Lon (NPP) SZA (NPP ) Distance(km) Time Diff (sec)
1 01/16/2020 14:17:11 79.65, -70.05 102.66 01/16/2020 14:18:23 79.63, -69.92 102.60 3.09 72
2 01/16/2020 15:08:07 -79.66, 97.42 77.36 01/16/2020 15:09:08 -79.64, 97.34 77.40 3.40 61
3 01/16/2020 15:59:11 79.66, -95.34 102.64 01/16/2020 15:59:53 79.63, -95.34 102.60 3.24 42
4 01/16/2020 16:50:08 -79.66, 71.83 77.37 01/16/2020 16:50:38 -79.64, 71.92 77.40 2.49 30
5 01/16/2020 17:41:12 79.66,-120.94 102.63 01/16/2020 17:41:24 79.67,-121.03 102.65 2.65 12
6 01/16/2020 18:32:08 -79.67, 46.53 77.39 01/16/2020 18:32:08 -79.65, 46.51 77.41 3.16 0
7 01/16/2020 19:23:12 79.67,-146.24 102.61 01/16/2020 19:22:53 79.65,-146.17 102.59 3.47 19
8 01/16/2020 20:14:09 -79.67, 20.94 77.40 01/16/2020 20:13:39 -79.68, 20.81 77.36 3.26 30
9 01/16/2020 21:05:13 79.67,-171.83 102.60 01/16/2020 21:04:24 79.68,-171.87 102.64 2.02 49
10 01/16/2020 21:56:09 -79.68, -4.35 77.42 01/16/2020 21:55:08 -79.66, -4.33 77.42 3.23 61




NCC Satellite Simultaneous Nadir Overpasses (SNOs) Prediction Service
